Data for 07/01/2018

Time Sea-Level Adjusted Pressure Absolute Pressure Temperature Relative Humidity Dew Point   
(mb) (inHg) (mb) (inHg) (C) (F) (%) (C) (F)
00:05 1018 30.06 847 25.01 15.9 60.7 43 3.5 38.3
00:10 1018 30.06 847 25.01 16.1 61 39 2.4 36.2
00:15 1018 30.06 847 25.01 16.8 62.3 34 1 33.8
00:20 1018 30.06 847 25.01 17.6 63.7 37 2.8 37
00:25 1018 30.06 847 25.01 17.1 62.9 37 2.6 36.7
00:30 1018 30.06 847 25.01 17.1 62.7 38 2.6 36.7
00:35 1018 30.06 848 25.04 17 62.7 39 3.1 37.5
00:40 1018 30.06 848 25.04 16.9 62.5 40 3.3 38
00:45 1018 30.06 848 25.04 16.9 62.3 36 2 35.6
00:50 1018 30.06 848 25.04 17.1 62.8 39 3.1 37.5
00:55 1019 30.09 848 25.04 17 62.5 40 3.2 37.8
01:00 1018 30.06 848 25.04 16.8 62.2 40 3.4 38.1
01:05 1018 30.06 848 25.04 16.7 62.1 40 3.1 37.6
01:10 1018 30.06 848 25.04 16.7 62.1 40 3.1 37.6
01:15 1018 30.06 847 25.01 16.7 62.1 40 3.3 37.9
01:20 1018 30.06 848 25.04 16.6 61.9 42 3.7 38.6
01:25 1018 30.06 848 25.04 16.5 61.7 42 3.8 38.8
01:30 1018 30.06 848 25.04 16.4 61.5 44 4.3 39.7
01:35 1018 30.06 848 25.04 16.3 61.3 45 4.3 39.7
01:40 1018 30.06 848 25.04 16.1 61.1 45 4.2 39.6
01:45 1018 30.06 848 25.04 15.8 60.5 48 5.1 41.1
01:50 1019 30.09 848 25.04 15.5 59.9 49 5 41
01:55 1019 30.09 848 25.04 15.2 59.4 52 5.6 42.2
02:00 1019 30.09 848 25.04 15.2 59.3 54 6 42.9
02:05 1019 30.09 848 25.04 15.1 59.3 54 5.9 42.6
02:10 1019 30.09 848 25.04 15.1 59.1 57 6.7 44.1
02:15 1019 30.09 848 25.04 14.7 58.5 61 7.3 45.2
02:20 1019 30.09 848 25.04 14.4 57.9 62 7.2 44.9
02:25 1019 30.09 848 25.04 14.2 57.5 63 7.2 45
02:30 1019 30.09 848 25.04 14.1 57.4 62 7 44.6
02:35 1019 30.09 848 25.04 14.1 57.5 61 6.7 44
02:40 1019 30.09 848 25.04 14.2 57.6 60 6.6 44
02:45 1019 30.09 848 25.04 14.3 57.8 60 6.7 44
02:50 1019 30.09 848 25.04 14.4 57.8 58 6.3 43.3
02:55 1019 30.09 848 25.04 14.4 57.9 58 6.4 43.6
03:00 1019 30.09 848 25.04 14.3 57.8 59 6.6 43.9
03:05 1019 30.09 848 25.04 14.2 57.6 61 6.8 44.3
03:10 1019 30.09 849 25.07 14.1 57.3 62 7 44.5
03:15 1020 30.12 849 25.07 13.9 57 64 7.3 45.1
03:20 1020 30.12 849 25.07 13.7 56.7 67 7.7 45.9
03:25 1020 30.12 849 25.07 13.1 55.7 69 7.6 45.7
03:30 1020 30.12 849 25.07 12.9 55.2 69 7.3 45.2
03:35 1020 30.12 849 25.07 12.9 55.3 67 7.1 44.7
03:40 1020 30.12 849 25.07 13 55.3 65 6.7 44
03:45 1020 30.12 849 25.07 13 55.3 65 6.6 43.8
03:50 1020 30.12 849 25.07 13 55.3 65 6.5 43.8
03:55 1020 30.12 849 25.07 12.9 55.3 66 6.9 44.3
04:00 1020 30.12 849 25.07 12.8 55 68 7.1 44.8
04:05 1020 30.12 849 25.07 12.6 54.8 69 7.2 45
04:10 1020 30.12 849 25.07 12.6 54.6 70 7.4 45.3
04:15 1020 30.12 849 25.07 12.5 54.4 72 7.5 45.5
04:20 1020 30.12 849 25.07 12.3 54.2 76 8.3 46.9
04:25 1020 30.12 849 25.07 12 53.6 78 8.3 46.9
04:30 1020 30.12 849 25.07 12 53.5 79 8.5 47.3
04:35 1020 30.12 849 25.07 12 53.6 79 8.6 47.4
04:40 1020 30.12 849 25.07 12 53.6 79 8.5 47.4
04:45 1020 30.12 849 25.07 12 53.6 78 8.3 47
04:50 1020 30.12 849 25.07 12.1 53.7 78 8.3 46.9
04:55 1020 30.12 849 25.07 12 53.5 76 8 46.4
05:00 1020 30.12 849 25.07 12.2 53.9 74 7.7 45.9
05:05 1020 30.12 849 25.07 12.3 54.1 76 8.2 46.8
05:10 1020 30.12 849 25.07 12.1 53.8 78 8.4 47.2
05:15 1020 30.12 849 25.07 12 53.5 79 8.4 47.1
05:20 1020 30.12 849 25.07 11.9 53.4 77 8 46.4
05:25 1020 30.12 849 25.07 11.9 53.5 75 7.8 46
05:30 1020 30.12 849 25.07 12 53.5 76 7.8 46.1
05:35 1020 30.12 849 25.07 11.9 53.5 76 7.9 46.1
05:40 1020 30.12 849 25.07 12 53.5 75 7.6 45.8
05:45 1020 30.12 849 25.07 11.9 53.5 75 7.8 46
05:50 1020 30.12 849 25.07 11.9 53.5 75 7.7 45.9
05:55 1020 30.12 849 25.07 12 53.6 74 7.6 45.6
06:00 1020 30.12 849 25.07 12.1 53.7 74 7.6 45.7
06:05 1020 30.12 849 25.07 12.1 53.7 75 7.7 45.9
06:10 1020 30.12 849 25.07 12.2 53.9 73 7.6 45.6
06:15 1020 30.12 849 25.07 12.3 54.1 73 7.5 45.5
06:20 1020 30.12 849 25.07 12.3 54.1 74 7.9 46.2
06:25 1020 30.12 849 25.07 12.3 54.1 76 8.2 46.7
06:30 1020 30.12 849 25.07 12.2 54 78 8.4 47.2
06:35 1020 30.12 849 25.07 12.2 53.9 78 8.4 47.2
06:40 1020 30.12 849 25.07 12.1 53.9 78 8.5 47.4
06:45 1020 30.12 849 25.07 12.1 53.7 79 8.5 47.3
06:50 1020 30.12 849 25.07 12.1 53.8 79 8.5 47.4
06:55 1020 30.12 849 25.07 12.2 53.9 74 7.8 46
07:00 1020 30.12 849 25.07 12.5 54.4 73 7.8 46.1
07:05 1020 30.12 849 25.07 12.7 54.8 72 7.8 46
07:10 1020 30.12 849 25.07 12.8 55 72 7.9 46.3
07:15 1020 30.12 849 25.07 12.8 55.1 72 7.9 46.3
07:20 1020 30.12 849 25.07 12.9 55.2 71 7.8 46
07:25 1020 30.12 849 25.07 13.1 55.5 71 7.9 46.2
07:30 1020 30.12 849 25.07 13.2 55.7 70 7.9 46.2
07:35 1020 30.12 849 25.07 13.2 55.8 71 8.1 46.6
07:40 1020 30.12 849 25.07 13.2 55.7 70 7.9 46.3
07:45 1020 30.12 849 25.07 13.2 55.8 69 7.8 46
07:50 1020 30.12 849 25.07 13.6 56.4 68 7.8 46.1
07:55 1020 30.12 849 25.07 14 57.2 67 8 46.4
08:00 1020 30.12 849 25.07 14.3 57.7 66 8 46.5
08:05 1020 30.12 849 25.07 14.4 58 64 7.8 46
08:10 1020 30.12 849 25.07 14.5 58.1 62 7.3 45.1
08:15 1020 30.12 849 25.07 15 59 59 7 44.7
08:20 1020 30.12 849 25.07 15.1 59.3 56 6.6 43.9
08:25 1020 30.12 849 25.07 15.7 60.3 54 6.4 43.5
08:30 1020 30.12 849 25.07 16 60.8 53 6.6 43.9
08:35 1020 30.12 849 25.07 16.3 61.3 53 6.8 44.2
08:40 1020 30.12 849 25.07 16 60.9 55 7.2 44.9
08:45 1020 30.12 849 25.07 15.9 60.7 52 6.2 43.2
08:50 1020 30.12 849 25.07 15.9 60.7 49 5.3 41.5
08:55 1020 30.12 849 25.07 16.6 61.9 48 5.8 42.4
09:00 1020 30.12 849 25.07 17.3 63.1 48 6.2 43.2
09:05 1020 30.12 849 25.07 17.1 62.9 50 6.6 43.9
09:10 1020 30.12 849 25.07 17.2 63 47 5.8 42.4
09:15 1020 30.12 849 25.07 17.7 63.8 46 6.1 43
09:20 1020 30.12 849 25.07 17.9 64.2 46 6.3 43.3
09:25 1020 30.12 849 25.07 18.6 65.5 43 5.9 42.6
09:30 1020 30.12 849 25.07 18.4 65.1 44 6.1 42.9
09:35 1020 30.12 849 25.07 18.6 65.4 45 6.5 43.7
09:40 1020 30.12 849 25.07 18.9 66.1 45 6.8 44.2
09:45 1020 30.12 849 25.07 18.9 66 46 7.3 45.1
09:50 1020 30.12 849 25.07 18.4 65.2 48 7.3 45.1
09:55 1019 30.09 849 25.07 18.4 65.2 47 7 44.5
10:00 1019 30.09 849 25.07 18.4 65.2 48 7.3 45.1
10:05 1019 30.09 849 25.07 18.7 65.7 47 7.4 45.3
10:10 1019 30.09 849 25.07 19 66.3 46 7.4 45.2
10:15 1019 30.09 849 25.07 18.8 65.9 46 7.2 44.9
10:20 1019 30.09 849 25.07 18.4 65.1 47 7.1 44.7
10:25 1019 30.09 849 25.07 18.5 65.2 45 6.5 43.8
10:30 1019 30.09 849 25.07 19.1 66.3 44 6.8 44.3
10:35 1019 30.09 848 25.04 19.3 66.8 42 6.2 43.1
10:40 1019 30.09 848 25.04 19.4 66.8 42 6.3 43.4
10:45 1019 30.09 849 25.07 19.8 67.6 42 6.5 43.8
10:50 1019 30.09 848 25.04 20.1 68.1 37 5.2 41.3
10:55 1019 30.09 848 25.04 20.1 68.1 43 7.3 45.1
11:00 1019 30.09 849 25.07 19.5 67 46 7.5 45.6
11:05 1019 30.09 849 25.07 19.1 66.5 45 7 44.7
11:10 1019 30.09 849 25.07 17.9 64.3 47 6.5 43.7
11:15 1019 30.09 849 25.07 17.5 63.5 50 7 44.6
11:20 1019 30.09 849 25.07 17.6 63.7 47 6.4 43.4
11:25 1019 30.09 849 25.07 17.8 64.1 47 6.4 43.5
11:30 1019 30.09 849 25.07 19.1 66.3 44 6.5 43.7
11:35 1019 30.09 849 25.07 18.9 66 45 6.9 44.4
11:40 1019 30.09 848 25.04 18.7 65.6 44 6.4 43.6
11:45 1019 30.09 848 25.04 18.1 64.6 46 6.4 43.5
11:50 1019 30.09 848 25.04 18 64.4 49 7.3 45.2
11:55 1019 30.09 848 25.04 18.1 64.6 45 6.2 43.2
12:00 1019 30.09 849 25.07 18.2 64.8 45 6.3 43.4
12:05 1019 30.09 848 25.04 18.9 66 45 6.8 44.3
12:10 1019 30.09 848 25.04 18.7 65.7 45 6.8 44.2
12:15 1019 30.09 848 25.04 17.6 63.7 48 6.7 44.1
12:20 1019 30.09 848 25.04 18.2 64.8 44 5.8 42.5
12:25 1019 30.09 848 25.04 19.4 67 43 6.8 44.2
12:30 1019 30.09 848 25.04 18.6 65.5 45 6.7 44.1
12:35 1019 30.09 848 25.04 18.3 64.9 46 6.7 44
12:40 1019 30.09 848 25.04 18.4 65.2 45 6.4 43.5
12:45 1019 30.09 848 25.04 19.9 67.7 43 7 44.6
12:50 1019 30.09 848 25.04 21 69.9 33 4.5 40.1
12:55 1019 30.09 848 25.04 21.1 70 33 4.5 40.2
13:00 1019 30.09 848 25.04 20.5 68.8 34 4.1 39.4
13:05 1019 30.09 848 25.04 20.4 68.7 33 3.8 38.9
13:10 1019 30.09 848 25.04 20.5 69 33 3.9 39
13:15 1019 30.09 848 25.04 20.8 69.5 32 3.5 38.3
13:20 1019 30.09 848 25.04 20.9 69.7 32 3.7 38.6
13:25 1019 30.09 848 25.04 20.9 69.6 32 3.8 38.9
13:30 1019 30.09 848 25.04 21 69.9 32 3.9 39
13:35 1019 30.09 848 25.04 21.2 70.2 32 3.9 39.1
13:40 1019 30.09 848 25.04 21.5 70.6 31 3.7 38.6
13:45 1019 30.09 848 25.04 21.7 71 31 4 39.2
13:50 1019 30.09 848 25.04 22 71.6 29 3.3 37.9
13:55 1019 30.09 848 25.04 21.7 71 29 3.2 37.8
14:00 1019 30.09 848 25.04 21.6 70.8 30 3.4 38.1
14:05 1019 30.09 848 25.04 22 71.5 30 3.8 38.9
14:10 1018 30.06 848 25.04 22.2 72 29 3.5 38.3
14:15 1018 30.06 848 25.04 22.1 71.8 27 2.4 36.2
14:20 1018 30.06 848 25.04 22.5 72.6 26 2.5 36.4
14:25 1018 30.06 848 25.04 22.1 71.8 26 2.1 35.8
14:30 1018 30.06 848 25.04 22.1 71.7 27 2.2 36
14:35 1018 30.06 848 25.04 22 71.6 28 2.7 36.8
14:40 1018 30.06 848 25.04 22.2 71.9 26 2.2 36
14:45 1018 30.06 848 25.04 22.2 72 26 1.8 35.2
14:50 1018 30.06 847 25.01 22.4 72.4 25 1.8 35.3
14:55 1018 30.06 847 25.01 22.7 72.9 25 1.9 35.4
15:00 1018 30.06 847 25.01 22.7 72.9 25 1.9 35.5
15:05 1018 30.06 847 25.01 23 73.5 26 2.9 37.3
15:10 1018 30.06 847 25.01 23.2 73.8 25 2.5 36.4
15:15 1018 30.06 847 25.01 23.7 74.6 20 -0.2 31.6
15:20 1018 30.06 847 25.01 23.4 74.2 21 -0.1 31.8
15:25 1018 30.06 847 25.01 23.6 74.4 21 0.1 32.2
15:30 1018 30.06 847 25.01 23.8 74.8 22 1.1 34.1
15:35 1018 30.06 847 25.01 23.9 75.1 21 0.4 32.8
15:40 1018 30.06 847 25.01 23.7 74.7 20 -0.5 31.2
15:45 1018 30.06 847 25.01 23.8 74.8 21 0.6 33
15:50 1018 30.06 847 25.01 23.9 75 22 0.9 33.7
15:55 1018 30.06 847 25.01 23.8 74.9 22 1.3 34.3
16:00 1018 30.06 847 25.01 23.9 75 21 0.8 33.4
16:05 1018 30.06 847 25.01 23.8 74.9 21 0.6 33
16:10 1018 30.06 847 25.01 23.8 74.8 21 0.7 33.2
16:15 1018 30.06 847 25.01 23.6 74.5 22 1.1 33.9
16:20 1018 30.06 847 25.01 23.9 74.9 22 1.2 34.2
16:25 1018 30.06 847 25.01 23.7 74.6 23 1.6 34.9
16:30 1018 30.06 847 25.01 23.7 74.6 24 2.1 35.7
16:35 1018 30.06 847 25.01 23.7 74.7 23 1.3 34.4
16:40 1018 30.06 847 25.01 23.8 74.8 23 1.9 35.3
16:45 1018 30.06 847 25.01 23.6 74.5 23 1.4 34.6
16:50 1017 30.03 847 25.01 23.6 74.4 23 1.4 34.6
16:55 1017 30.03 847 25.01 23.2 73.7 23 1.2 34.2
17:00 1017 30.03 847 25.01 23.2 73.7 24 1.5 34.6
17:05 1017 30.03 847 25.01 23.3 73.9 24 1.5 34.7
17:10 1017 30.03 847 25.01 23.1 73.6 25 2.4 36.4
17:15 1017 30.03 847 25.01 22.5 72.6 25 1.9 35.5
17:20 1017 30.03 846 24.98 22.4 72.4 25 1.8 35.2
17:25 1017 30.03 847 25.01 23.2 73.8 25 2.1 35.8
17:30 1017 30.03 847 25.01 24.3 75.7 23 2.1 35.7
17:35 1017 30.03 847 25.01 24.4 76 21 1.2 34.2
17:40 1017 30.03 846 24.98 24.4 75.8 22 1.4 34.5
17:45 1017 30.03 846 24.98 24.3 75.8 22 1.7 35.1
17:50 1017 30.03 846 24.98 24 75.2 23 1.5 34.8
17:55 1017 30.03 846 24.98 23.5 74.3 23 1.6 34.9
18:00 1017 30.03 846 24.98 23.1 73.6 26 2.6 36.6
18:05 1017 30.03 846 24.98 23.1 73.7 25 2.2 35.9
18:10 1017 30.03 846 24.98 24 75.1 24 2.1 35.8
18:15 1017 30.03 846 24.98 24.2 75.5 24 2.8 37
18:20 1017 30.03 846 24.98 24.1 75.3 24 2.3 36.1
18:25 1017 30.03 846 24.98 23.7 74.7 24 2 35.6
18:30 1017 30.03 846 24.98 23.8 74.8 23 1.7 35
18:35 1017 30.03 846 24.98 23.5 74.2 24 1.7 35
18:40 1017 30.03 846 24.98 23.3 73.9 23 1.3 34.4
18:45 1017 30.03 846 24.98 23.4 74.1 23 1.4 34.5
18:50 1017 30.03 846 24.98 23.1 73.6 24 1.8 35.2
18:55 1017 30.03 846 24.98 22.8 73 25 2.2 35.9
19:00 1017 30.03 846 24.98 22.9 73.3 26 2.5 36.5
19:05 1017 30.03 846 24.98 22.9 73.3 26 2.6 36.7
19:10 1017 30.03 846 24.98 22.7 72.9 27 2.8 37
19:15 1017 30.03 846 24.98 22.5 72.5 27 2.8 37
19:20 1017 30.03 846 24.98 22.7 72.8 28 3.3 37.9
19:25 1017 30.03 846 24.98 22.4 72.4 28 3.2 37.7
19:30 1017 30.03 846 24.98 22.3 72.2 28 2.9 37.3
19:35 1017 30.03 846 24.98 22.2 71.9 28 2.8 37
19:40 1017 30.03 846 24.98 22.1 71.7 28 3 37.4
19:45 1017 30.03 846 24.98 21.8 71.3 29 3.2 37.7
19:50 1017 30.03 846 24.98 21.6 70.9 29 2.9 37.2
19:55 1017 30.03 846 24.98 21.5 70.7 29 3 37.4
20:00 1017 30.03 846 24.98 21.4 70.5 30 3.2 37.8
20:05 1017 30.03 846 24.98 21.3 70.4 30 3.4 38.1
20:10 1017 30.03 846 24.98 20.9 69.5 31 3.5 38.3
20:15 1017 30.03 846 24.98 20.7 69.3 33 3.8 38.9
20:20 1017 30.03 846 24.98 20.4 68.7 34 4.1 39.3
20:25 1017 30.03 846 24.98 20.1 68.3 34 4.1 39.3
20:30 1017 30.03 846 24.98 20 68 34 3.9 39
20:35 1017 30.03 846 24.98 20 67.9 35 4.1 39.4
20:40 1017 30.03 846 24.98 19.9 67.8 35 4 39.2
20:45 1017 30.03 846 24.98 19.9 67.8 34 3.6 38.5
20:50 1017 30.03 846 24.98 19.8 67.7 35 4 39.1
20:55 1017 30.03 846 24.98 19.7 67.5 33 3.1 37.6
21:00 1017 30.03 846 24.98 19.7 67.5 34 3.7 38.7
21:05 1017 30.03 846 24.98 19.6 67.2 35 3.9 39.1
21:10 1017 30.03 846 24.98 19.4 66.8 34 3.2 37.8
21:15 1017 30.03 847 25.01 19.3 66.7 32 2.2 36
21:20 1017 30.03 847 25.01 19.5 67.1 31 2.1 35.7
21:25 1017 30.03 847 25.01 19.2 66.6 42 6.2 43.2
21:30 1017 30.03 847 25.01 18.4 65.2 46 6.7 44
21:35 1017 30.03 847 25.01 17.9 64.3 45 6 42.7
21:40 1017 30.03 847 25.01 17.7 63.8 46 5.9 42.6
21:45 1018 30.06 847 25.01 17.5 63.4 47 6.2 43.2
21:50 1018 30.06 847 25.01 17.1 62.8 50 6.6 43.9
21:55 1018 30.06 847 25.01 16.7 62.1 51 6.5 43.7
22:00 1018 30.06 847 25.01 16.4 61.6 50 6.2 43.2
22:05 1018 30.06 847 25.01 16.1 61 52 6.4 43.5
22:10 1018 30.06 847 25.01 15.8 60.4 53 6.3 43.4
22:15 1018 30.06 847 25.01 15.7 60.2 54 6.4 43.5
22:20 1018 30.06 847 25.01 15.5 59.9 53 6.1 42.9
22:25 1018 30.06 847 25.01 15.3 59.5 54 6.1 43
22:30 1018 30.06 847 25.01 15.2 59.3 54 6.1 42.9
22:35 1018 30.06 847 25.01 15 59 54 6 42.8
22:40 1018 30.06 847 25.01 15 58.9 53 5.6 42.1
22:45 1018 30.06 847 25.01 15 59.1 55 6 42.9
22:50 1018 30.06 847 25.01 14.9 58.7 55 5.9 42.7
22:55 1018 30.06 847 25.01 14.7 58.4 55 5.9 42.6
23:00 1018 30.06 847 25.01 14.5 58.2 55 5.7 42.2
23:05 1018 30.06 847 25.01 14.6 58.3 54 5.4 41.7
23:10 1018 30.06 847 25.01 14.6 58.3 55 5.8 42.4
23:15 1018 30.06 847 25.01 14.5 58 55 5.6 42.1
23:20 1018 30.06 847 25.01 14.4 57.8 55 5.6 42.1
23:25 1018 30.06 847 25.01 14.3 57.7 55 5.3 41.6
23:30 1018 30.06 847 25.01 14.3 57.8 53 5.1 41.1
23:35 1018 30.06 847 25.01 14.4 58 54 5.4 41.6
23:40 1018 30.06 847 25.01 14.3 57.7 55 5.4 41.8
23:45 1018 30.06 847 25.01 14.1 57.4 56 5.5 41.8
23:50 1018 30.06 847 25.01 14 57.1 56 5.5 41.9
23:55 1018 30.06 847 25.01 13.8 56.8 57 5.4 41.8
24:00 1018 30.06 847 25.01 13.8 56.8 58 5.6 42.1